Weather in Atamanovka

Russia / Zabaykalsky Krai     51°55′45″N   113°38′13″E
temp.,
°C
wind,
m/s
gust,
m/s
humid.,
%
clouds,
%
prec.,
mm/h
press.,
hPa
HPBL,
m
18 april, sun
sun1800:00+5nne004343 0.0 100310
03:00+3se114946 0.0 100210
06:00+1se1156100 0.0 100210
09:00+7wnw31041100 0.0 1003697
12:00+9nw7114681 0.0 10041789
15:00+8wnw914190 0.0 10072313
18:00+5wnw712145 0.0 10112220
21:00−1nnw510190 0.0 1018960
19 april, mon
mon1900:00−4nnw26330 0.0 1022171
03:00−7nnw11435 0.0 102410
06:00−9nne11485 0.0 102510
09:00−3se1128100 0.0 1025577
12:00+2s231771 0.0 10221297
15:00+6wsw241881 0.0 10181927
18:00+7sse13195 0.0 10151857
21:00+1ese383362 0.0 1016181
20 april, tue
tue2000:000ese38365 0.0 1014221
03:00−2e22436 0.0 101316
06:00−4ese2147100 0.0 101117
09:00+3sse1238100 0.1 1009241
12:00+11ssw242818 0.1 1005716
15:00+18wsw372116 0.1 10012159
18:00+18w410165 0.0 10002921
21:00+9w1135100 0.0 100310
21 april, wed
wed2100:00+6ene014329 0.0 100410
03:00+4nnw2250100 0.0 100424
06:00+1nw22714 0.0 100736
09:00+6n234916 0.0 1006443
12:00+12nw3335100 0.0 10051162
15:00+13nw4433100 0.0 10041673
18:00+11nnw4529100 0.0 10061549
21:00+5nnw4960100 0.0 1011511
22 april, thu
thu2200:00+2nw2377100 0.0 1015111
03:00+1nw2678100 0.0 1016429
06:00+1nw2661100 0.0 1019555
09:00+3nnw344423 0.0 1022897
12:00+6nnw45275 0.0 10221600
15:00+9nnw4417100 0.0 10211939
18:00+8n3317100 0.0 10231684
21:00+4nne2328100 0.0 102653